Wind_Speed
7 7 6 6 7 7 7 8 9 9 9 11 10 10 10 9 10 10 9 9 9 9 9 8 8 8 8 8 8 9 10 9 9 9 8 7 7 7 6 7 6 5 5
8 7 7 6 6 7 8 8 9 9 9 10 10 10 9 9 9 9 9 9 9 9 8 7 7 8 8 8 8 9 8 8 8 8 8 7 7 6 6 5 5 5 5
8 7 7 7 6 7 8 8 9 9 9 10 10 10 9 8 9 8 8 8 8 8 8 8 7 7 7 8 8 8 7 8 8 8 8 7 6 5 5 5 5 4 5
8 7 7 8 7 7 8 9 9 10 10 9 9 9 9 9 9 8 8 8 8 8 8 7 7 6 7 7 8 8 8 8 8 8 7 6 6 5 5 5 5 5 5
8 7 6 7 7 8 8 9 10 10 10 10 9 9 9 9 9 8 8 8 7 8 8 7 6 5 6 8 8 9 8 8 7 7 6 6 5 5 5 5 4 4 4
8 7 6 6 7 7 8 8 9 9 10 9 9 9 8 8 8 8 8 7 7 7 7 7 6 6 6 8 8 9 9 8 8 7 6 6 5 5 5 4 4 4 4
8 7 6 6 6 7 7 7 8 9 9 9 9 8 8 8 8 9 8 8 7 7 7 6 6 6 7 8 8 8 8 8 8 7 7 6 5 5 5 4 4 4 4
8 7 7 7 7 7 6 6 7 8 8 9 9 8 7 8 9 8 8 7 7 7 7 6 6 5 7 7 7 8 7 8 8 8 7 7 6 5 5 4 4 4 4
8 7 7 7 6 6 6 6 6 7 8 8 8 8 7 8 8 8 8 7 7 7 6 6 6 6 6 6 6 7 8 8 7 7 7 7 6 5 5 5 5 4 3
8 7 7 6 7 6 6 6 7 8 8 8 8 8 8 7 7 7 7 6 6 7 6 6 6 6 6 6 6 6 7 7 7 7 7 7 6 5 5 5 5 5 4
9 8 8 7 7 8 7 7 8 9 9 9 8 8 8 7 7 6 6 6 6 6 6 5 5 5 6 6 6 7 7 7 7 7 7 7 7 6 5 5 5 5 5
8 8 9 8 8 8 8 8 9 9 9 8 8 7 7 7 6 6 5 5 5 5 5 5 5 4 5 6 6 6 7 7 7 7 7 7 7 6 6 5 5 6 6
9 9 8 9 8 8 8 9 9 9 8 7 7 6 5 5 5 5 4 4 4 4 4 4 5 4 5 6 6 6 7 7 7 7 7 7 7 7 7 7 6 7 7
9 9 9 8 8 8 8 8 8 7 7 6 6 5 4 4 4 4 4 4 3 3 4 3 3 4 4 5 6 6 6 8 7 7 7 7 8 8 8 8 7 8 8
9 9 9 8 8 8 7 7 7 7 6 6 5 4 4 3 3 3 3 3 3 3 3 4 3 4 4 4 5 5 6 8 8 8 8 7 8 8 9 8 9 9 9
9 8 8 8 8 8 7 7 7 6 6 5 5 4 3 2 2 2 2 2 2 2 2 3 3 3 3 3 4 5 6 7 7 8 8 8 8 8 8 9 9 10 10
9 9 9 8 8 8 7 6 6 5 5 4 4 3 3 2 2 1 1 2 2 2 2 2 3 3 3 4 4 5 5 6 7 8 8 9 10 10 9 10 10 11 11
10 9 9 9 8 8 7 6 5 5 5 4 4 3 3 2 2 1 0 1 2 3 3 3 3 4 4 5 5 6 6 7 8 8 9 9 10 10 11 11 11 12 13
10 9 9 8 8 7 7 6 5 4 4 4 3 3 2 2 2 2 1 1 3 4 4 4 4 5 6 6 6 6 7 8 9 9 9 10 10 11 11 11 12 12 13
10 9 9 8 8 7 7 6 5 4 3 3 2 2 2 1 2 2 2 2 3 4 5 6 6 7 7 7 7 8 8 8 9 10 10 11 11 11 12 12 13 13 13
9 9 8 8 7 6 6 6 6 5 4 3 2 2 2 2 3 3 4 4 5 6 7 7 7 7 8 8 9 9 9 10 10 11 12 12 12 12 13 13 14 14 15
9 9 8 8 7 6 6 6 6 6 5 4 3 3 3 3 4 4 4 5 5 6 6 7 8 8 8 8 9 9 9 10 12 12 13 13 14 14 15 15 15 16 16
9 9 8 8 7 7 7 6 6 6 6 5 4 5 5 5 4 5 5 5 5 6 6 7 8 9 9 10 10 10 10 11 11 12 13 14 15 15 15 16 16 16 16
8 8 8 7 7 6 6 6 6 6 6 6 6 6 6 6 5 5 5 5 6 6 6 7 7 8 9 10 11 11 12 12 12 13 14 15 15 16 17 17 17 18 18
8 8 8 7 7 6 6 6 7 7 7 7 7 8 8 7 7 7 7 7 7 7 7 8 8 9 9 10 10 11 11 12 13 13 14 15 16 17 17 17 18 19 20
8 8 8 8 7 7 6 7 7 7 8 8 8 8 9 9 9 8 8 8 8 8 8 8 9 10 11 11 11 11 11 12 12 13 14 15 16 17 17 17 18 19 20
Wind_Direction
119 117 113 117 127 129 130 133 129 128 132 138 136 135 137 136 133 128 123 126 129 130 130 129 129 131 132 138 149 154 150 148 148 147 143 141 149 149 143 143 134 129 126
121 121 118 120 124 131 134 139 136 134 138 140 139 139 137 135 133 131 131 132 131 136 135 131 132 135 138 140 144 151 148 146 149 144 144 145 150 149 141 134 130 128 131
119 122 121 125 124 127 130 135 140 138 140 143 142 142 139 134 136 136 134 136 139 143 140 137 136 138 145 150 153 154 155 152 152 152 150 149 145 143 139 134 132 125 126
112 119 120 128 128 132 133 134 137 139 139 138 138 140 140 137 137 136 136 136 141 145 145 141 143 148 155 161 163 164 164 159 156 157 156 150 144 140 141 135 127 119 121
107 115 117 124 127 132 133 135 137 136 138 135 134 136 138 141 143 140 136 135 138 141 143 143 145 150 159 165 166 166 170 166 162 161 154 152 151 150 143 131 130 132 134
103 110 117 122 129 130 129 130 133 132 135 134 132 133 134 139 142 142 141 138 136 133 132 137 141 143 154 162 167 172 176 171 170 166 164 163 157 152 151 147 143 144 145
99 105 112 117 126 123 123 124 129 132 133 134 133 132 133 135 137 138 141 139 137 135 132 132 136 133 144 156 168 175 176 179 175 173 173 168 161 156 160 164 161 157 150
93 97 106 114 120 120 121 126 131 132 136 133 133 131 130 129 132 136 140 142 142 138 135 138 142 141 149 159 171 175 177 180 185 183 179 174 170 161 164 168 170 165 165
93 96 103 113 121 122 122 125 132 137 135 136 136 132 131 131 133 133 137 139 144 146 141 142 145 147 153 162 168 173 177 179 186 190 184 180 178 176 174 172 176 175 176
93 93 98 101 108 110 115 118 128 140 141 140 139 137 133 132 133 134 136 137 139 144 143 144 145 151 157 165 171 176 176 183 187 193 192 191 192 190 181 185 193 192 194
88 88 96 101 105 108 110 115 124 133 137 134 133 132 134 133 134 137 137 137 140 147 150 153 153 150 162 176 182 181 183 187 186 193 197 199 201 199 194 200 208 205 206
80 81 87 92 101 105 110 111 116 125 129 128 126 125 129 127 132 137 139 138 140 147 155 160 157 159 170 177 175 183 188 190 192 198 206 209 210 208 207 213 213 213 219
76 80 85 87 92 98 107 110 113 120 121 121 122 125 128 125 128 133 135 137 143 146 152 158 158 165 173 183 184 189 193 200 201 205 213 216 219 220 221 221 223 225 230
76 79 83 87 88 91 100 108 111 113 115 115 118 122 124 123 129 131 134 141 145 153 163 164 174 178 181 185 191 194 199 205 211 213 217 221 227 230 229 226 229 231 232
74 80 82 84 87 90 95 103 108 110 111 108 109 115 122 127 141 152 148 147 151 154 169 186 197 199 198 208 209 206 211 212 216 220 223 230 235 236 235 239 241 241 239
71 74 78 82 86 89 93 101 103 104 105 107 106 101 98 96 129 163 172 180 182 180 180 187 204 218 219 225 221 215 218 219 225 230 232 237 238 239 241 245 247 248 247
70 69 69 75 82 84 89 93 96 98 96 99 98 93 86 78 78 104 191 214 212 217 225 230 225 227 226 227 224 223 228 231 236 237 241 244 248 248 248 248 248 251 253
68 66 65 69 75 75 79 84 88 91 92 88 85 81 71 70 64 53 33 229 227 232 239 246 243 239 242 236 236 237 238 242 249 249 251 251 251 253 251 250 251 252 254
63 62 64 68 72 72 72 77 80 84 86 83 79 74 65 54 24 11 349 277 248 245 245 248 251 252 253 247 247 248 251 254 257 257 254 253 253 254 255 252 252 255 257
59 60 61 64 68 68 67 67 65 63 68 65 62 51 34 10 339 328 320 298 273 264 261 257 255 256 257 253 253 255 258 257 259 260 260 260 260 259 259 258 257 259 262
53 53 53 56 61 61 59 57 53 47 41 29 22 11 360 339 327 317 303 290 279 275 268 261 259 259 259 258 262 263 258 259 260 262 263 262 261 262 263 263 260 261 266
43 46 48 49 48 44 44 44 43 39 32 20 5 355 349 344 337 327 308 300 284 279 275 270 266 266 266 267 268 268 263 262 263 263 263 264 262 263 265 266 264 264 267
34 37 39 39 37 33 32 30 27 23 18 16 7 353 343 333 330 322 311 305 301 292 286 277 271 267 271 271 269 268 268 268 268 268 267 266 265 266 267 268 268 267 270
19 21 25 28 28 25 21 18 14 10 7 5 358 350 342 336 328 321 322 312 300 300 293 287 282 275 275 278 275 273 272 272 272 272 271 270 268 268 268 268 268 268 270
3 6 10 11 13 12 7 3 3 4 3 358 353 348 342 336 330 323 318 313 306 300 294 288 285 281 280 278 279 280 279 278 277 276 276 273 272 272 272 270 270 271 271
347 353 357 358 359 359 358 355 352 353 353 350 345 341 337 334 329 323 318 312 308 302 295 292 291 286 281 279 278 280 281 282 283 283 282 281 277 275 274 274 275 273 273
Height
5868 5868 5868 5868 5868 5869 5869 5870 5870 5871 5871 5872 5872 5873 5873 5874 5874 5875 5876 5877 5878 5878 5879 5880 5880 5881 5882 5883 5883 5884 5885 5886 5887 5888 5890 5891 5891 5892 5892 5893 5894 5894 5895
5869 5868 5869 5869 5869 5869 5870 5870 5871 5871 5872 5872 5873 5874 5874 5875 5875 5876 5876 5877 5878 5879 5880 5880 5881 5881 5882 5883 5884 5885 5886 5887 5889 5890 5891 5892 5892 5893 5893 5894 5895 5895 5896
5869 5869 5870 5870 5870 5870 5870 5871 5872 5872 5873 5873 5874 5874 5875 5875 5876 5876 5877 5878 5879 5880 5880 5881 5881 5882 5883 5884 5885 5886 5887 5889 5890 5891 5891 5892 5893 5894 5895 5895 5896 5896 5896
5870 5870 5870 5870 5871 5871 5871 5872 5872 5873 5874 5874 5874 5875 5875 5876 5877 5877 5878 5878 5879 5880 5881 5881 5882 5882 5883 5884 5885 5887 5888 5889 5890 5891 5892 5893 5894 5895 5895 5896 5896 5897 5897
5871 5871 5871 5871 5871 5872 5872 5873 5873 5874 5875 5875 5875 5875 5876 5877 5877 5878 5879 5879 5880 5881 5881 5882 5882 5882 5882 5883 5885 5887 5889 5890 5891 5892 5893 5894 5895 5895 5896 5896 5897 5897 5898
5872 5872 5872 5872 5872 5872 5873 5873 5874 5875 5875 5876 5876 5876 5877 5877 5878 5878 5879 5880 5881 5881 5882 5882 5882 5882 5881 5883 5885 5887 5889 5890 5891 5892 5893 5894 5895 5896 5897 5897 5898 5898 5899
5873 5873 5873 5873 5873 5873 5874 5874 5874 5875 5876 5876 5877 5877 5877 5878 5879 5879 5880 5881 5881 5882 5883 5883 5883 5883 5883 5884 5886 5888 5889 5890 5892 5893 5894 5894 5895 5896 5897 5898 5898 5899 5899
5874 5874 5874 5874 5874 5874 5874 5874 5875 5875 5876 5876 5877 5878 5878 5879 5879 5880 5881 5881 5882 5883 5883 5884 5884 5884 5885 5885 5886 5888 5889 5891 5892 5893 5894 5895 5896 5896 5897 5898 5899 5899 5900
5876 5875 5875 5875 5875 5874 5874 5874 5874 5875 5876 5877 5878 5878 5879 5879 5880 5881 5881 5882 5883 5884 5884 5885 5885 5885 5886 5887 5887 5888 5889 5891 5892 5893 5894 5895 5896 5896 5897 5898 5899 5899 5900
5877 5877 5876 5876 5876 5875 5874 5874 5873 5875 5876 5877 5878 5879 5880 5880 5881 5881 5882 5883 5884 5884 5885 5885 5886 5886 5887 5887 5888 5889 5890 5891 5892 5893 5894 5895 5896 5896 5897 5898 5899 5899 5900
5880 5879 5878 5877 5877 5876 5875 5874 5874 5875 5876 5878 5879 5880 5881 5881 5882 5882 5883 5883 5884 5884 5885 5885 5886 5887 5887 5887 5888 5889 5890 5891 5892 5893 5894 5895 5895 5896 5896 5897 5898 5899 5899
5881 5881 5880 5880 5879 5878 5877 5876 5876 5877 5878 5880 5881 5881 5882 5882 5883 5883 5883 5884 5884 5885 5885 5885 5886 5886 5887 5887 5888 5889 5890 5891 5892 5893 5894 5895 5895 5896 5896 5897 5897 5898 5899
5883 5883 5882 5881 5881 5880 5880 5879 5879 5879 5881 5881 5882 5883 5883 5883 5884 5884 5884 5884 5884 5885 5885 5885 5886 5886 5887 5887 5888 5889 5890 5891 5892 5893 5893 5894 5895 5895 5895 5896 5896 5897 5898
5885 5884 5884 5883 5883 5882 5882 5882 5882 5882 5883 5883 5883 5884 5884 5884 5884 5885 5885 5885 5885 5885 5885 5886 5886 5886 5886 5887 5888 5889 5890 5891 5891 5892 5892 5893 5894 5894 5894 5895 5895 5896 5896
5887 5886 5886 5885 5885 5885 5884 5884 5884 5884 5884 5884 5885 5884 5885 5885 5885 5885 5885 5885 5885 5885 5885 5886 5886 5886 5886 5887 5888 5888 5889 5890 5890 5891 5892 5892 5892 5893 5892 5893 5893 5894 5894
5889 5888 5887 5887 5886 5886 5886 5886 5886 5886 5885 5885 5885 5885 5885 5885 5885 5885 5885 5885 5885 5885 5885 5885 5886 5886 5886 5887 5887 5888 5889 5889 5890 5890 5890 5891 5891 5891 5891 5892 5892 5892 5892
5891 5890 5889 5888 5888 5887 5887 5887 5887 5887 5887 5886 5886 5886 5886 5885 5885 5885 5885 5885 5885 5885 5885 5885 5886 5886 5886 5887 5887 5888 5888 5888 5889 5889 5889 5889 5889 5890 5890 5890 5890 5890 5891
5893 5892 5891 5890 5889 5889 5888 5888 5888 5888 5888 5887 5887 5886 5886 5886 5886 5885 5885 5885 5885 5885 5885 5885 5885 5886 5886 5886 5887 5887 5887 5887 5887 5887 5888 5888 5888 5888 5888 5888 5888 5888 5888
5895 5894 5893 5892 5891 5890 5890 5890 5889 5889 5889 5888 5887 5887 5887 5886 5886 5886 5885 5885 5885 5885 5885 5885 5885 5885 5885 5885 5885 5885 5885 5886 5886 5886 5886 5886 5886 5886 5886 5885 5886 5886 5886
5897 5896 5894 5893 5893 5892 5891 5891 5890 5889 5889 5888 5888 5887 5887 5886 5886 5885 5885 5884 5884 5884 5884 5884 5884 5884 5884 5883 5883 5884 5884 5884 5884 5884 5884 5884 5883 5883 5883 5883 5883 5883 5883
5899 5897 5896 5895 5894 5893 5892 5891 5891 5890 5889 5889 5888 5887 5886 5886 5885 5884 5884 5884 5883 5883 5882 5882 5882 5882 5882 5882 5882 5882 5882 5881 5881 5881 5881 5881 5881 5880 5880 5880 5880 5880 5880
5901 5899 5898 5897 5896 5895 5893 5892 5891 5891 5890 5889 5888 5887 5886 5885 5885 5884 5883 5882 5882 5881 5881 5881 5880 5880 5880 5880 5880 5880 5879 5880 5879 5879 5878 5878 5878 5878 5877 5877 5877 5876 5876
5902 5901 5899 5898 5897 5896 5895 5893 5892 5891 5890 5889 5888 5887 5886 5885 5884 5883 5882 5881 5880 5880 5879 5879 5878 5878 5878 5878 5878 5878 5877 5877 5876 5876 5875 5875 5875 5874 5874 5874 5873 5873 5873
5903 5902 5900 5899 5897 5896 5895 5894 5893 5892 5890 5889 5888 5887 5886 5884 5883 5882 5881 5880 5879 5879 5878 5877 5877 5876 5876 5875 5875 5874 5874 5874 5873 5873 5872 5871 5871 5870 5870 5870 5869 5869 5869
5904 5903 5901 5900 5898 5897 5895 5894 5893 5892 5890 5889 5888 5887 5885 5884 5882 5881 5880 5879 5878 5877 5876 5875 5875 5874 5873 5873 5872 5872 5871 5871 5870 5869 5869 5868 5867 5866 5866 5865 5865 5865 5864
5904 5903 5901 5900 5898 5897 5895 5894 5893 5892 5890 5889 5887 5886 5885 5883 5882 5880 5879 5877 5876 5874 5874 5873 5872 5871 5871 5870 5870 5869 5868 5868 5867 5866 5865 5864 5863 5863 5862 5861 5861 5860 5859